[{"OBJECT_NAME":"CUTE-1 (CO-55)","OBJECT_ID":"2003-031E","EPOCH":"2026-09-13T06:24:39.819456","MEAN_MOTION":14.24380509,"ECCENTRICITY":0.00084539,"INCLINATION":98.6771,"RA_OF_ASC_NODE":263.733,"ARG_OF_PERICENTER":292.9115,"MEAN_ANOMALY":67.1171,"EPHEMERIS_TYPE":0,"CLASSIFICATION_TYPE":"U","NORAD_CAT_ID":27844,"ELEMENT_SET_NO":999,"REV_AT_EPOCH":20421,"BSTAR":0.000099844887,"MEAN_MOTION_DOT":0.00000187,"MEAN_MOTION_DDOT":0},{"OBJECT_NAME":"CUBESAT XI-IV (CO-57)","OBJECT_ID":"2003-031J","EPOCH":"2026-09-12T22:45:57.369888","MEAN_MOTION":14.23659208,"ECCENTRICITY":0.00086021,"INCLINATION":98.6802,"RA_OF_ASC_NODE":263.06,"ARG_OF_PERICENTER":315.1815,"MEAN_ANOMALY":44.8668,"EPHEMERIS_TYPE":0,"CLASSIFICATION_TYPE":"U","NORAD_CAT_ID":27848,"ELEMENT_SET_NO":999,"REV_AT_EPOCH":20386,"BSTAR":0.000085894656,"MEAN_MOTION_DOT":0.00000152,"MEAN_MOTION_DDOT":0},{"OBJECT_NAME":"CUBESAT XI-V","OBJECT_ID":"2005-043F","EPOCH":"2026-09-12T23:30:08.990208","MEAN_MOTION":14.72822283,"ECCENTRICITY":0.00127872,"INCLINATION":98.31,"RA_OF_ASC_NODE":53.5159,"ARG_OF_PERICENTER":288.714,"MEAN_ANOMALY":71.2678,"EPHEMERIS_TYPE":0,"CLASSIFICATION_TYPE":"U","NORAD_CAT_ID":28895,"ELEMENT_SET_NO":999,"REV_AT_EPOCH":11467,"BSTAR":0.00014936024,"MEAN_MOTION_DOT":0.00000903,"MEAN_MOTION_DDOT":0},{"OBJECT_NAME":"CUTE-1.7+APD II (CO-65)","OBJECT_ID":"2008-021C","EPOCH":"2026-09-13T06:16:35.807520","MEAN_MOTION":15.10148755,"ECCENTRICITY":0.0010497,"INCLINATION":97.8371,"RA_OF_ASC_NODE":239.6043,"ARG_OF_PERICENTER":89.3631,"MEAN_ANOMALY":270.8801,"EPHEMERIS_TYPE":0,"CLASSIFICATION_TYPE":"U","NORAD_CAT_ID":32785,"ELEMENT_SET_NO":999,"REV_AT_EPOCH":99848,"BSTAR":0.0001965656,"MEAN_MOTION_DOT":0.00003142,"MEAN_MOTION_DDOT":0},{"OBJECT_NAME":"CANX-2","OBJECT_ID":"2008-021H","EPOCH":"2026-09-13T04:45:06.207264","MEAN_MOTION":15.06137128,"ECCENTRICITY":0.00119651,"INCLINATION":97.8738,"RA_OF_ASC_NODE":237.7669,"ARG_OF_PERICENTER":104.0712,"MEAN_ANOMALY":256.1846,"EPHEMERIS_TYPE":0,"CLASSIFICATION_TYPE":"U","NORAD_CAT_ID":32790,"ELEMENT_SET_NO":999,"REV_AT_EPOCH":99805,"BSTAR":0.00015144906,"MEAN_MOTION_DOT":0.00002153,"MEAN_MOTION_DDOT":0},{"OBJECT_NAME":"SEEDS II (CO-66)","OBJECT_ID":"2008-021J","EPOCH":"2026-09-12T23:50:02.546592","MEAN_MOTION":15.35500824,"ECCENTRICITY":0.00032282,"INCLINATION":97.7562,"RA_OF_ASC_NODE":258.2954,"ARG_OF_PERICENTER":45.4161,"MEAN_ANOMALY":314.7344,"EPHEMERIS_TYPE":0,"CLASSIFICATION_TYPE":"U","NORAD_CAT_ID":32791,"ELEMENT_SET_NO":999,"REV_AT_EPOCH":74,"BSTAR":0.00043311818,"MEAN_MOTION_DOT":0.0001487,"MEAN_MOTION_DDOT":0},{"OBJECT_NAME":"SWISSCUBE","OBJECT_ID":"2009-051B","EPOCH":"2026-09-13T05:13:04.889280","MEAN_MOTION":14.6262136,"ECCENTRICITY":0.00057664,"INCLINATION":98.3946,"RA_OF_ASC_NODE":165.6064,"ARG_OF_PERICENTER":307.7111,"MEAN_ANOMALY":52.3567,"EPHEMERIS_TYPE":0,"CLASSIFICATION_TYPE":"U","NORAD_CAT_ID":35932,"ELEMENT_SET_NO":999,"REV_AT_EPOCH":90202,"BSTAR":0.00014834292,"MEAN_MOTION_DOT":0.00000704,"MEAN_MOTION_DDOT":0},{"OBJECT_NAME":"BEESAT-1","OBJECT_ID":"2009-051C","EPOCH":"2026-09-12T17:25:08.687136","MEAN_MOTION":14.61836967,"ECCENTRICITY":0.00045877,"INCLINATION":98.3871,"RA_OF_ASC_NODE":164.5563,"ARG_OF_PERICENTER":329.2694,"MEAN_ANOMALY":30.8237,"EPHEMERIS_TYPE":0,"CLASSIFICATION_TYPE":"U","NORAD_CAT_ID":35933,"ELEMENT_SET_NO":999,"REV_AT_EPOCH":90197,"BSTAR":0.00012274805,"MEAN_MOTION_DOT":0.00000564,"MEAN_MOTION_DDOT":0},{"OBJECT_NAME":"ITUPSAT1","OBJECT_ID":"2009-051E","EPOCH":"2026-09-13T04:54:42.211008","MEAN_MOTION":14.6054915,"ECCENTRICITY":0.00069758,"INCLINATION":98.3951,"RA_OF_ASC_NODE":164.1381,"ARG_OF_PERICENTER":335.8504,"MEAN_ANOMALY":24.2368,"EPHEMERIS_TYPE":0,"CLASSIFICATION_TYPE":"U","NORAD_CAT_ID":35935,"ELEMENT_SET_NO":999,"REV_AT_EPOCH":90158,"BSTAR":0.00012317015,"MEAN_MOTION_DOT":0.00000549,"MEAN_MOTION_DDOT":0},{"OBJECT_NAME":"TISAT 1","OBJECT_ID":"2010-035E","EPOCH":"2026-09-12T10:28:18.423840","MEAN_MOTION":15.34851707,"ECCENTRICITY":0.00009499,"INCLINATION":98.0772,"RA_OF_ASC_NODE":209.9741,"ARG_OF_PERICENTER":33.5756,"MEAN_ANOMALY":326.5546,"EPHEMERIS_TYPE":0,"CLASSIFICATION_TYPE":"U","NORAD_CAT_ID":36799,"ELEMENT_SET_NO":999,"REV_AT_EPOCH":88107,"BSTAR":0.00054632796,"MEAN_MOTION_DOT":0.00018396,"MEAN_MOTION_DDOT":0},{"OBJECT_NAME":"STRAND-1","OBJECT_ID":"2013-009E","EPOCH":"2026-09-13T01:21:22.425120","MEAN_MOTION":14.37205874,"ECCENTRICITY":0.00080803,"INCLINATION":98.3969,"RA_OF_ASC_NODE":74.1593,"ARG_OF_PERICENTER":335.9641,"MEAN_ANOMALY":24.1168,"EPHEMERIS_TYPE":0,"CLASSIFICATION_TYPE":"U","NORAD_CAT_ID":39090,"ELEMENT_SET_NO":999,"REV_AT_EPOCH":70968,"BSTAR":0.000072541721,"MEAN_MOTION_DOT":0.00000173,"MEAN_MOTION_DDOT":0},{"OBJECT_NAME":"BRITE-AUSTRIA","OBJECT_ID":"2013-009F","EPOCH":"2026-09-13T05:55:49.222272","MEAN_MOTION":14.36571016,"ECCENTRICITY":0.00098148,"INCLINATION":98.4047,"RA_OF_ASC_NODE":73.5352,"ARG_OF_PERICENTER":343.9991,"MEAN_ANOMALY":16.0884,"EPHEMERIS_TYPE":0,"CLASSIFICATION_TYPE":"U","NORAD_CAT_ID":39091,"ELEMENT_SET_NO":999,"REV_AT_EPOCH":70969,"BSTAR":0.000049563191,"MEAN_MOTION_DOT":0.00000103,"MEAN_MOTION_DDOT":0},{"OBJECT_NAME":"NEE-01 PEGASO","OBJECT_ID":"2013-018B","EPOCH":"2026-09-12T22:41:17.896128","MEAN_MOTION":14.94013146,"ECCENTRICITY":0.00114432,"INCLINATION":98.135,"RA_OF_ASC_NODE":43.0838,"ARG_OF_PERICENTER":231.2953,"MEAN_ANOMALY":128.7244,"EPHEMERIS_TYPE":0,"CLASSIFICATION_TYPE":"U","NORAD_CAT_ID":39151,"ELEMENT_SET_NO":999,"REV_AT_EPOCH":72380,"BSTAR":0.00018710554,"MEAN_MOTION_DOT":0.00001935,"MEAN_MOTION_DDOT":0},{"OBJECT_NAME":"POPACS 2","OBJECT_ID":"2013-055E","EPOCH":"2026-09-13T03:04:48.637344","MEAN_MOTION":14.93841331,"ECCENTRICITY":0.04057124,"INCLINATION":80.9911,"RA_OF_ASC_NODE":43.3086,"ARG_OF_PERICENTER":270.8826,"MEAN_ANOMALY":84.5939,"EPHEMERIS_TYPE":0,"CLASSIFICATION_TYPE":"U","NORAD_CAT_ID":39269,"ELEMENT_SET_NO":999,"REV_AT_EPOCH":67633,"BSTAR":0.00014805175,"MEAN_MOTION_DOT":0.00008901,"MEAN_MOTION_DDOT":0},{"OBJECT_NAME":"POPACS 3","OBJECT_ID":"2013-055F","EPOCH":"2026-09-13T02:23:35.630016","MEAN_MOTION":14.57396968,"ECCENTRICITY":0.05464355,"INCLINATION":81.0004,"RA_OF_ASC_NODE":133.7475,"ARG_OF_PERICENTER":161.6407,"MEAN_ANOMALY":200.5408,"EPHEMERIS_TYPE":0,"CLASSIFICATION_TYPE":"U","NORAD_CAT_ID":39270,"ELEMENT_SET_NO":999,"REV_AT_EPOCH":65135,"BSTAR":0.00017624208,"MEAN_MOTION_DOT":0.00007528,"MEAN_MOTION_DDOT":0},{"OBJECT_NAME":"ZACUBE-1 (TSHEPISOSAT)","OBJECT_ID":"2013-066B","EPOCH":"2026-09-12T15:27:29.928096","MEAN_MOTION":15.01788424,"ECCENTRICITY":0.00400086,"INCLINATION":97.8132,"RA_OF_ASC_NODE":218.4269,"ARG_OF_PERICENTER":320.6731,"MEAN_ANOMALY":39.1589,"EPHEMERIS_TYPE":0,"CLASSIFICATION_TYPE":"U","NORAD_CAT_ID":39417,"ELEMENT_SET_NO":999,"REV_AT_EPOCH":69385,"BSTAR":0.00032533875,"MEAN_MOTION_DOT":0.00004248,"MEAN_MOTION_DDOT":0},{"OBJECT_NAME":"WNISAT-1","OBJECT_ID":"2013-066H","EPOCH":"2026-09-13T06:03:55.643040","MEAN_MOTION":14.58191772,"ECCENTRICITY":0.01616856,"INCLINATION":97.7333,"RA_OF_ASC_NODE":39.2234,"ARG_OF_PERICENTER":314.8798,"MEAN_ANOMALY":43.9366,"EPHEMERIS_TYPE":0,"CLASSIFICATION_TYPE":"U","NORAD_CAT_ID":39423,"ELEMENT_SET_NO":999,"REV_AT_EPOCH":67956,"BSTAR":0.000078578285,"MEAN_MOTION_DOT":0.00000382,"MEAN_MOTION_DDOT":0},{"OBJECT_NAME":"TRITON-1","OBJECT_ID":"2013-066M","EPOCH":"2026-09-13T05:05:00.849696","MEAN_MOTION":14.82036659,"ECCENTRICITY":0.00883434,"INCLINATION":97.8161,"RA_OF_ASC_NODE":163.9885,"ARG_OF_PERICENTER":308.0931,"MEAN_ANOMALY":51.2338,"EPHEMERIS_TYPE":0,"CLASSIFICATION_TYPE":"U","NORAD_CAT_ID":39427,"ELEMENT_SET_NO":999,"REV_AT_EPOCH":68712,"BSTAR":0.00017813645,"MEAN_MOTION_DOT":0.00001455,"MEAN_MOTION_DDOT":0},{"OBJECT_NAME":"GOMX-1","OBJECT_ID":"2013-066Q","EPOCH":"2026-09-13T07:00:24.054912","MEAN_MOTION":14.69689182,"ECCENTRICITY":0.01284696,"INCLINATION":97.6434,"RA_OF_ASC_NODE":91.2019,"ARG_OF_PERICENTER":153.7281,"MEAN_ANOMALY":207.0519,"EPHEMERIS_TYPE":0,"CLASSIFICATION_TYPE":"U","NORAD_CAT_ID":39430,"ELEMENT_SET_NO":999,"REV_AT_EPOCH":68285,"BSTAR":0.00020030919,"MEAN_MOTION_DOT":0.00001303,"MEAN_MOTION_DDOT":0},{"OBJECT_NAME":"CUBEBUG-2 (LO-74)","OBJECT_ID":"2013-066AA","EPOCH":"2026-09-12T20:47:28.859136","MEAN_MOTION":14.94251623,"ECCENTRICITY":0.005859,"INCLINATION":97.8977,"RA_OF_ASC_NODE":205.2795,"ARG_OF_PERICENTER":96.3658,"MEAN_ANOMALY":264.4239,"EPHEMERIS_TYPE":0,"CLASSIFICATION_TYPE":"U","NORAD_CAT_ID":39440,"ELEMENT_SET_NO":999,"REV_AT_EPOCH":69008,"BSTAR":0.00026453263,"MEAN_MOTION_DOT":0.00002874,"MEAN_MOTION_DDOT":0},{"OBJECT_NAME":"NEE-02 KRYSAOR","OBJECT_ID":"2013-066AB","EPOCH":"2026-09-13T02:29:26.981664","MEAN_MOTION":14.86901717,"ECCENTRICITY":0.00665736,"INCLINATION":97.8934,"RA_OF_ASC_NODE":194.7276,"ARG_OF_PERICENTER":140.2406,"MEAN_ANOMALY":220.3716,"EPHEMERIS_TYPE":0,"CLASSIFICATION_TYPE":"U","NORAD_CAT_ID":39441,"ELEMENT_SET_NO":999,"REV_AT_EPOCH":68926,"BSTAR":0.00013619054,"MEAN_MOTION_DOT":0.00001208,"MEAN_MOTION_DDOT":0},{"OBJECT_NAME":"FUNCUBE-1 (AO-73)","OBJECT_ID":"2013-066AE","EPOCH":"2026-09-13T04:32:51.158400","MEAN_MOTION":15.1057263,"ECCENTRICITY":0.00334074,"INCLINATION":97.8381,"RA_OF_ASC_NODE":229.5889,"ARG_OF_PERICENTER":263.8581,"MEAN_ANOMALY":95.8841,"EPHEMERIS_TYPE":0,"CLASSIFICATION_TYPE":"U","NORAD_CAT_ID":39444,"ELEMENT_SET_NO":999,"REV_AT_EPOCH":69294,"BSTAR":0.00031130978,"MEAN_MOTION_DOT":0.00005136,"MEAN_MOTION_DDOT":0},{"OBJECT_NAME":"UWE-3","OBJECT_ID":"2013-066AG","EPOCH":"2026-09-12T10:15:49.705632","MEAN_MOTION":14.97533493,"ECCENTRICITY":0.00492748,"INCLINATION":97.8789,"RA_OF_ASC_NODE":212.1574,"ARG_OF_PERICENTER":30.7163,"MEAN_ANOMALY":329.6926,"EPHEMERIS_TYPE":0,"CLASSIFICATION_TYPE":"U","NORAD_CAT_ID":39446,"ELEMENT_SET_NO":999,"REV_AT_EPOCH":69063,"BSTAR":0.00032704483,"MEAN_MOTION_DOT":0.00003848,"MEAN_MOTION_DDOT":0}]